Wind_Speed
18 17 15 15 14 13 12 10 9 9 8 6 5 4 4 3 2 2 3 4 4 6 6 6 7 7 8 7 7 6 5 5 5 4 4 4 3 3 2 2 1 0 1 2
20 19 18 18 17 16 14 12 12 11 10 9 7 7 6 6 4 3 4 4 5 5 6 6 6 7 7 7 6 6 5 5 5 4 4 3 3 3 2 2 2 1 2 2
21 20 21 20 19 17 16 15 14 14 13 11 10 9 9 9 8 7 6 6 5 5 6 6 7 7 7 7 6 6 5 5 5 5 4 3 3 3 3 3 3 3 3 3
23 23 22 22 21 19 18 18 17 16 15 13 13 11 12 11 10 9 8 8 7 7 7 7 7 8 8 8 7 7 7 6 6 6 6 5 4 4 4 4 4 4 4 4
24 24 23 22 22 21 21 21 20 18 17 16 16 14 13 12 11 11 10 10 10 9 9 9 8 9 9 9 8 8 9 8 8 7 7 6 6 5 6 6 6 6 6 6
25 25 25 24 24 24 23 23 22 20 19 19 17 16 14 14 12 12 12 12 11 12 11 10 10 10 11 11 10 10 10 10 10 9 9 9 8 9 8 8 8 8 8 8
25 25 25 25 25 25 25 23 21 21 21 20 18 18 15 15 14 13 13 13 13 13 13 13 12 12 12 13 12 12 12 12 12 11 11 11 11 11 10 10 10 10 10 10
25 26 26 25 26 25 25 25 23 22 20 20 21 20 16 16 16 15 15 15 15 15 15 14 14 14 14 14 14 14 14 14 14 13 13 13 13 13 13 13 12 11 11 11
25 26 26 26 27 27 26 26 24 24 23 22 22 21 18 18 18 17 17 17 17 17 17 16 16 16 16 16 16 15 15 16 17 16 15 15 14 14 14 14 14 13 13 14
26 26 27 27 27 28 28 27 26 25 24 24 23 23 20 20 19 20 19 19 19 18 18 17 17 17 18 18 17 17 17 17 18 18 18 17 17 17 16 16 16 15 15 15
28 28 27 28 28 28 29 29 28 26 26 25 24 23 23 23 21 20 20 19 19 18 19 19 18 18 19 19 19 19 19 19 20 20 20 19 19 18 18 18 18 17 17 17
30 29 29 29 28 28 29 29 28 28 27 27 25 24 25 24 22 21 21 20 20 20 20 20 20 20 20 21 21 21 21 21 21 21 21 21 21 21 21 20 20 18 18 18
32 32 30 30 30 30 31 30 30 29 29 29 27 25 25 24 24 23 22 22 22 21 21 21 21 21 21 22 22 22 22 22 22 23 23 23 23 23 22 22 21 20 19 19
34 34 32 31 29 31 31 31 31 30 30 30 29 26 27 26 25 24 24 24 23 22 22 22 23 23 23 23 23 23 24 24 24 24 23 23 23 23 23 23 22 21 21 21
35 35 34 33 33 33 32 32 32 32 31 31 30 29 28 27 27 26 25 24 24 24 24 25 25 25 25 25 25 25 26 26 25 24 24 24 24 24 24 24 23 23 23 22
36 36 35 34 34 33 33 33 33 33 32 31 31 30 28 27 27 26 26 26 26 26 25 25 26 26 26 26 25 25 25 25 25 25 25 25 25 25 25 25 24 25 24 24
36 36 35 34 34 34 35 34 33 33 32 31 31 30 29 28 28 27 26 27 27 27 27 27 27 27 27 27 27 26 27 27 26 26 27 26 27 27 27 26 26 26 26 25
35 36 36 34 34 35 34 34 34 33 33 33 33 32 31 31 29 28 27 28 28 28 27 27 28 28 28 28 28 28 28 28 28 28 29 29 28 28 28 28 28 28 28 28
36 36 36 35 35 35 34 34 33 33 33 33 33 33 32 31 30 30 29 29 29 29 28 29 29 29 28 28 29 29 29 29 29 29 30 30 31 30 30 30 30 30 30 30
36 36 36 36 36 35 34 35 33 33 34 33 33 32 31 31 30 29 29 29 29 29 29 29 30 30 29 29 29 30 30 30 31 31 32 31 32 32 32 32 32 31 30 31
36 36 36 36 36 36 36 35 34 34 33 33 32 32 32 31 30 30 29 29 29 30 30 30 30 31 30 30 31 31 31 31 32 32 32 32 33 33 33 32 32 32 32 32
36 36 37 37 37 37 38 36 35 34 33 32 32 32 32 31 31 30 30 30 30 30 30 31 31 32 32 32 32 32 32 32 32 32 32 32 33 34 34 33 32 32 33 33
35 35 36 37 37 37 38 37 36 35 34 33 32 32 32 31 31 31 31 31 31 31 32 31 31 32 32 32 32 32 32 33 32 32 32 33 33 34 33 33 33 33 33 32
33 34 35 36 37 37 37 36 35 35 33 32 32 32 31 31 31 32 31 32 32 32 32 31 31 31 32 32 32 31 31 31 31 32 32 32 32 33 32 32 32 32 32 32
31 32 34 36 36 35 35 35 34 34 33 32 32 32 32 31 31 31 31 31 31 32 32 32 31 31 31 31 31 31 31 31 30 30 30 30 31 31 32 32 32 32 31 31
30 31 32 32 32 33 33 33 33 33 33 32 32 33 32 32 31 31 31 31 31 31 31 31 31 31 31 31 31 31 31 29 29 30 29 28 29 30 30 31 31 31 30 30
Wind_Direction
230 227 229 231 228 227 230 232 238 243 242 237 241 241 250 260 291 341 352 345 349 357 5 7 9 14 12 10 11 16 21 20 25 26 30 29 31 40 44 35 15 316 251 240
232 230 233 232 230 231 235 237 241 246 248 246 249 252 253 255 262 282 301 315 325 333 342 355 0 2 359 358 359 357 358 359 5 7 2 359 3 356 355 356 347 324 291 264
234 234 233 233 233 236 238 240 241 245 251 255 257 260 258 257 261 271 281 283 298 315 322 330 337 341 341 343 344 339 339 337 337 340 336 336 340 332 328 329 319 312 306 286
233 234 233 233 234 236 240 241 242 246 252 260 261 260 264 262 260 264 271 275 281 294 301 309 319 325 324 325 325 323 320 319 317 320 319 309 318 317 311 311 306 301 295 289
236 234 234 232 236 237 238 241 243 247 252 256 261 259 258 262 260 263 268 272 274 279 286 294 303 308 311 310 309 312 315 309 306 306 308 303 299 301 298 298 293 289 288 286
237 236 234 233 235 237 240 243 247 250 254 255 257 259 255 261 261 263 265 269 270 272 278 284 290 296 299 299 302 307 306 307 301 298 295 297 294 293 293 290 289 285 282 282
236 236 234 233 236 238 239 241 245 249 252 257 259 258 257 259 263 266 268 268 269 271 276 281 283 290 293 294 297 300 300 300 294 292 289 291 289 288 288 287 286 281 282 279
236 236 235 234 236 240 241 242 244 248 250 257 260 260 261 260 261 265 268 270 270 270 271 276 279 285 287 287 291 293 294 293 291 286 288 288 285 283 280 281 285 280 279 280
235 238 240 238 237 239 243 244 245 247 248 250 253 260 260 260 263 264 266 267 268 268 267 269 274 281 285 286 288 288 288 289 289 284 286 285 283 281 280 280 281 282 285 284
236 239 241 241 241 242 243 245 245 243 245 251 256 259 262 260 258 260 262 265 266 265 264 266 270 277 282 285 285 283 285 288 288 281 280 282 281 279 280 280 281 281 284 285
236 239 242 244 243 243 244 244 245 245 246 249 256 260 261 260 258 257 260 262 262 261 261 263 267 274 279 280 280 280 281 286 287 282 280 280 279 278 279 281 279 279 281 282
235 239 240 244 245 243 244 245 246 247 249 251 253 258 261 259 256 256 257 258 260 260 259 261 266 270 273 276 275 276 279 282 283 281 280 282 278 275 278 279 278 277 279 281
236 238 240 242 244 244 244 244 245 247 250 252 254 258 259 258 257 258 258 258 259 259 259 261 264 267 270 272 271 271 275 278 280 281 281 279 277 275 279 282 281 278 279 281
236 238 238 238 242 245 246 246 246 248 250 254 256 256 259 260 259 257 257 257 258 258 258 260 263 267 269 269 268 269 271 275 277 278 278 278 278 278 279 281 280 279 281 281
238 240 240 239 240 244 248 248 249 250 251 253 257 258 257 259 258 258 257 257 258 258 260 261 262 266 269 269 268 268 271 272 274 276 278 280 279 278 278 279 279 278 279 280
240 241 242 242 243 244 247 248 250 251 253 254 256 258 257 258 259 258 256 256 257 259 261 263 263 265 267 267 268 268 269 271 272 273 274 277 279 279 279 280 281 279 277 278
240 241 243 244 245 245 246 247 249 252 253 254 256 258 259 260 260 259 257 255 257 258 261 263 264 265 266 268 267 268 269 269 270 271 272 274 276 277 277 278 279 278 277 278
240 241 242 244 246 247 249 250 251 252 253 254 255 256 258 261 260 258 257 256 257 259 260 261 263 265 267 269 269 270 269 269 269 269 271 274 277 276 276 278 278 278 275 275
239 241 243 244 247 249 250 251 251 253 254 254 256 257 258 259 259 258 258 258 258 259 260 261 263 264 265 266 267 268 269 270 270 269 270 273 275 276 276 276 277 277 277 275
240 242 243 244 245 247 251 252 252 254 255 254 255 255 256 256 256 258 257 257 257 258 260 262 264 265 265 267 268 267 269 270 270 269 269 271 273 275 277 276 277 277 277 276
242 243 243 245 246 247 249 251 251 252 254 256 255 254 254 254 254 255 254 255 256 257 259 261 264 267 268 268 269 269 269 270 269 269 269 270 272 273 275 277 276 276 277 276
244 244 245 245 246 247 249 251 251 252 254 256 255 253 252 252 253 252 252 253 255 257 259 262 264 266 267 268 268 269 269 268 268 267 267 268 270 272 273 275 277 277 278 276
242 243 245 246 247 249 250 251 252 253 253 253 253 251 250 252 252 252 252 253 255 257 259 261 263 265 266 267 267 267 269 268 268 268 267 267 269 270 272 274 276 278 278 277
243 242 244 246 247 249 251 252 252 252 252 251 250 250 250 251 252 253 253 254 256 257 258 260 262 264 265 266 266 267 268 269 269 269 268 268 269 270 271 273 275 276 275 276
242 243 245 247 249 250 251 251 251 250 250 249 249 249 252 252 253 254 253 254 256 258 259 260 261 262 263 264 267 267 268 269 268 268 269 269 269 270 271 272 274 275 274 276
242 245 247 249 249 250 250 249 248 248 248 247 247 249 251 252 253 253 252 253 255 257 258 259 261 262 264 265 266 269 268 268 267 267 268 270 271 271 271 272 274 274 274 276
Height
5897 5901 5903 5906 5908 5910 5911 5913 5914 5914 5913 5914 5914 5914 5914 5914 5913 5913 5912 5911 5910 5909 5908 5907 5906 5905 5904 5903 5902 5901 5900 5899 5897 5896 5895 5894 5894 5893 5893 5892 5892 5892 5892 5891
5894 5897 5900 5902 5904 5906 5908 5910 5911 5912 5911 5912 5913 5913 5913 5913 5913 5912 5911 5911 5910 5909 5908 5907 5906 5905 5904 5903 5902 5901 5900 5899 5898 5897 5896 5895 5894 5893 5893 5892 5892 5892 5891 5891
5890 5895 5896 5898 5900 5902 5905 5907 5908 5909 5909 5910 5911 5912 5911 5911 5911 5911 5910 5910 5909 5909 5908 5907 5906 5905 5904 5903 5902 5901 5900 5899 5898 5897 5896 5895 5893 5893 5892 5892 5892 5891 5891 5890
5885 5889 5891 5893 5896 5899 5901 5903 5904 5906 5907 5908 5909 5910 5909 5909 5909 5909 5908 5908 5908 5907 5907 5906 5905 5904 5903 5902 5901 5900 5899 5898 5897 5896 5895 5894 5893 5892 5892 5891 5891 5890 5890 5890
5881 5884 5886 5889 5892 5895 5897 5899 5900 5902 5903 5905 5905 5906 5908 5906 5906 5907 5906 5906 5906 5906 5905 5904 5904 5903 5902 5901 5900 5899 5898 5897 5896 5895 5894 5893 5892 5891 5891 5890 5889 5889 5888 5888
5876 5879 5881 5885 5887 5889 5891 5894 5896 5897 5899 5900 5902 5902 5904 5903 5903 5903 5903 5903 5903 5903 5903 5902 5902 5901 5900 5899 5899 5898 5897 5896 5895 5894 5893 5893 5892 5890 5890 5889 5888 5887 5887 5886
5870 5873 5876 5879 5882 5884 5886 5890 5892 5893 5895 5897 5897 5897 5900 5899 5899 5899 5900 5900 5900 5900 5900 5899 5899 5898 5898 5897 5896 5895 5894 5894 5893 5892 5891 5890 5889 5889 5888 5887 5886 5885 5884 5884
5865 5868 5870 5873 5876 5879 5881 5885 5888 5890 5892 5893 5892 5892 5895 5895 5895 5895 5896 5896 5896 5896 5896 5896 5896 5895 5895 5894 5893 5893 5892 5891 5890 5889 5888 5887 5886 5886 5885 5884 5883 5882 5882 5881
5861 5863 5866 5868 5871 5874 5876 5878 5882 5884 5884 5887 5888 5888 5889 5890 5890 5891 5891 5891 5892 5892 5892 5892 5892 5891 5891 5891 5890 5889 5889 5888 5886 5885 5885 5884 5883 5883 5882 5881 5881 5880 5879 5878
5854 5857 5859 5862 5864 5867 5870 5872 5874 5877 5878 5880 5882 5883 5884 5884 5885 5886 5886 5887 5887 5888 5888 5888 5888 5888 5887 5886 5886 5886 5885 5884 5882 5881 5881 5880 5880 5879 5878 5878 5877 5876 5875 5874
5848 5851 5853 5855 5857 5860 5863 5865 5867 5870 5872 5874 5876 5880 5878 5878 5879 5880 5881 5881 5882 5882 5882 5883 5883 5883 5883 5882 5882 5881 5881 5879 5878 5877 5876 5876 5875 5874 5874 5873 5872 5872 5871 5870
5840 5844 5846 5849 5851 5853 5855 5858 5860 5863 5864 5866 5869 5874 5871 5871 5873 5874 5875 5875 5876 5876 5877 5877 5878 5878 5877 5877 5876 5876 5875 5875 5874 5872 5872 5871 5870 5870 5869 5868 5868 5867 5866 5865
5832 5836 5839 5842 5845 5846 5848 5851 5853 5856 5858 5859 5862 5866 5864 5865 5866 5867 5868 5869 5870 5870 5871 5871 5872 5872 5872 5872 5871 5871 5870 5869 5869 5867 5866 5866 5865 5864 5864 5863 5862 5862 5861 5860
5823 5827 5832 5836 5838 5839 5840 5843 5846 5848 5850 5852 5854 5857 5857 5858 5859 5860 5861 5862 5863 5864 5864 5865 5865 5866 5866 5865 5865 5865 5864 5864 5863 5862 5861 5860 5859 5858 5858 5857 5856 5856 5855 5855
5814 5818 5821 5826 5828 5830 5832 5835 5837 5839 5842 5845 5847 5848 5850 5851 5852 5853 5854 5855 5856 5857 5858 5858 5859 5859 5859 5858 5858 5858 5858 5857 5856 5855 5854 5854 5853 5853 5852 5851 5850 5849 5848 5848
5804 5808 5812 5816 5819 5821 5824 5826 5829 5831 5834 5836 5838 5839 5841 5842 5844 5845 5846 5847 5848 5849 5850 5851 5851 5851 5851 5851 5851 5851 5850 5850 5849 5849 5848 5847 5847 5846 5845 5844 5843 5842 5841 5841
5795 5799 5803 5807 5809 5811 5814 5818 5821 5823 5825 5827 5829 5832 5832 5834 5835 5837 5838 5839 5840 5841 5842 5843 5843 5843 5843 5843 5843 5843 5843 5843 5842 5841 5841 5840 5839 5839 5838 5838 5837 5836 5835 5834
5786 5790 5793 5797 5800 5802 5809 5810 5812 5814 5816 5818 5820 5822 5824 5825 5826 5828 5829 5830 5832 5833 5834 5834 5835 5835 5835 5835 5835 5835 5835 5834 5834 5833 5833 5832 5831 5831 5831 5830 5829 5828 5827 5827
5777 5780 5784 5788 5790 5794 5798 5800 5803 5805 5807 5809 5811 5813 5814 5816 5817 5819 5820 5822 5823 5824 5825 5825 5826 5826 5826 5827 5827 5827 5826 5826 5826 5825 5825 5824 5824 5823 5823 5822 5821 5820 5819 5818
5767 5771 5775 5778 5781 5785 5789 5790 5793 5796 5797 5799 5801 5803 5805 5807 5809 5811 5811 5813 5814 5815 5816 5816 5817 5817 5817 5818 5818 5818 5818 5817 5817 5817 5816 5816 5815 5814 5814 5813 5812 5811 5810 5809
5758 5761 5764 5768 5770 5775 5778 5780 5784 5787 5789 5790 5792 5794 5796 5798 5800 5801 5802 5804 5805 5806 5807 5808 5808 5808 5808 5809 5809 5809 5808 5808 5807 5807 5807 5807 5806 5805 5805 5804 5802 5801 5800 5799
5748 5752 5755 5758 5762 5767 5768 5771 5774 5777 5779 5780 5782 5784 5786 5788 5790 5792 5794 5795 5796 5797 5798 5799 5799 5799 5799 5799 5799 5799 5798 5798 5797 5797 5797 5797 5797 5796 5795 5794 5793 5792 5791 5789
5739 5743 5746 5749 5754 5755 5757 5760 5763 5766 5769 5770 5773 5775 5777 5779 5781 5783 5785 5786 5787 5788 5789 5789 5789 5789 5789 5789 5789 5789 5788 5788 5787 5787 5787 5787 5787 5786 5785 5784 5783 5782 5781 5780
5729 5733 5735 5738 5742 5744 5747 5749 5752 5755 5758 5761 5763 5765 5767 5769 5772 5774 5775 5777 5777 5778 5779 5780 5780 5780 5780 5779 5779 5779 5779 5778 5777 5777 5777 5776 5776 5776 5775 5774 5773 5773 5772 5771
5720 5723 5725 5728 5732 5734 5736 5739 5742 5744 5747 5750 5753 5755 5757 5760 5762 5764 5766 5767 5768 5769 5770 5770 5770 5770 5770 5770 5770 5770 5769 5768 5768 5768 5767 5766 5766 5766 5765 5765 5764 5763 5762 5761
5712 5714 5716 5719 5722 5724 5727 5728 5731 5734 5737 5740 5743 5746 5749 5750 5753 5755 5756 5758 5759 5760 5760 5761 5761 5761 5761 5761 5761 5760 5760 5759 5758 5758 5757 5756 5756 5756 5756 5755 5755 5754 5753 5752